When you browse on this site, cookies collect data to enhance your experience and personalize the content and advertising you see.
Visit our Privacy Policy to learn more. By continuing to use the site, you agree to this use of cookies and data.
  • In Romania
  • List of Countries
  • For 7 days
  • Water Temperature
  • Satellite Maps
  • Weather Map
  • Weather Widgets
  • user-avatar
    Login

    Hourly Weather Zvoyskie Vyselki

    Today, 23 July, Tuesday

    Time Temperature Precipitation Wind Pressure Humidity
    00:00 +17°C° 0 mm 2 mps 745 mmHg 83%
    01:00 +17°C° 0 mm 2 mps 745 mmHg 84%
    02:00 +17°C° 0 mm 2 mps 745 mmHg 86%
    03:00 +17°C° 0 mm 2 mps 744 mmHg 92%
    04:00 +17°C° 0.5 mm 2 mps 744 mmHg 93%
    05:00 +17°C° 0.5 mm 3 mps 744 mmHg 94%
    06:00 +17°C° 0.5 mm 3 mps 743 mmHg 95%
    07:00 +18°C° 0.9 mm 4 mps 743 mmHg 94%
    08:00 +18°C° 0.9 mm 4 mps 743 mmHg 94%
    09:00 +18°C° 0.9 mm 4 mps 743 mmHg 93%
    10:00 +19°C° 0.5 mm 5 mps 743 mmHg 91%
    11:00 +20°C° 0.5 mm 5 mps 743 mmHg 89%
    12:00 +20°C° 0.5 mm 6 mps 743 mmHg 87%
    13:00 +21°C° 1.6 mm 6 mps 743 mmHg 86%
    14:00 +21°C° 1.6 mm 5 mps 743 mmHg 85%
    15:00 +22°C° 1.6 mm 5 mps 742 mmHg 84%
    16:00 +22°C° 0.7 mm 5 mps 742 mmHg 84%
    17:00 +22°C° 0.7 mm 4 mps 742 mmHg 84%
    18:00 +22°C° 0.7 mm 3 mps 742 mmHg 85%
    19:00 +21°C° 0.2 mm 3 mps 742 mmHg 87%
    20:00 +19°C° 0.2 mm 3 mps 742 mmHg 90%
    21:00 +18°C° 0.2 mm 3 mps 742 mmHg 93%
    22:00 +18°C° 0 mm 2 mps 742 mmHg 93%
    23:00 +17°C° 0 mm 2 mps 742 mmHg 94%

    Tomorrow, 24 July, Wednesday

    Time Temperature Precipitation Wind Pressure Humidity
    00:00 +16°C° 0 mm 2 mps 742 mmHg 94%
    01:00 +16°C° 0 mm 2 mps 742 mmHg 94%
    02:00 +16°C° 0 mm 2 mps 742 mmHg 94%
    03:00 +15°C° 0 mm 1 mps 742 mmHg 94%
    04:00 +16°C° 0 mm 1 mps 742 mmHg 94%
    05:00 +16°C° 0 mm 1 mps 742 mmHg 94%
    06:00 +18°C° 0 mm 1 mps 742 mmHg 93%
    07:00 +19°C° 0.2 mm 1 mps 742 mmHg 90%
    08:00 +20°C° 0.2 mm 1 mps 742 mmHg 88%
    09:00 +20°C° 0.2 mm 2 mps 742 mmHg 85%
    10:00 +20°C° 1.1 mm 2 mps 743 mmHg 82%
    11:00 +21°C° 1.1 mm 2 mps 743 mmHg 79%
    12:00 +21°C° 1.1 mm 2 mps 743 mmHg 76%
    13:00 +21°C° 0.4 mm 2 mps 743 mmHg 79%
    14:00 +20°C° 0.4 mm 3 mps 743 mmHg 82%
    15:00 +19°C° 0.4 mm 3 mps 743 mmHg 86%
    16:00 +20°C° 0.1 mm 3 mps 743 mmHg 84%
    17:00 +20°C° 0.1 mm 2 mps 743 mmHg 83%
    18:00 +21°C° 0.1 mm 2 mps 743 mmHg 82%
    19:00 +20°C° 0.3 mm 2 mps 743 mmHg 85%
    20:00 +18°C° 0.3 mm 2 mps 743 mmHg 89%
    21:00 +17°C° 0.3 mm 2 mps 743 mmHg 92%
    22:00 +17°C° 0 mm 2 mps 743 mmHg 93%
    23:00 +16°C° 0 mm 1 mps 743 mmHg 93%

    Day after tomorrow, 25 July, Thursday

    Time Temperature Precipitation Wind Pressure Humidity
    00:00 +16°C° 0 mm 1 mps 743 mmHg 93%
    01:00 +16°C° 0 mm 1 mps 743 mmHg 93%
    02:00 +16°C° 0 mm 1 mps 743 mmHg 92%
    03:00 +15°C° 0 mm 0 mps 743 mmHg 92%
    04:00 +15°C° 0 mm 0 mps 743 mmHg 92%
    05:00 +15°C° 0 mm 0 mps 743 mmHg 92%
    06:00 +15°C° 0 mm 0 mps 743 mmHg 92%
    07:00 +18°C° 0 mm 1 mps 743 mmHg 89%
    08:00 +19°C° 0 mm 1 mps 744 mmHg 86%
    09:00 +20°C° 0 mm 1 mps 744 mmHg 83%
    10:00 +20°C° 0.2 mm 2 mps 744 mmHg 81%
    11:00 +21°C° 0.2 mm 2 mps 744 mmHg 78%
    12:00 +22°C° 0.2 mm 3 mps 744 mmHg 76%
    13:00 +22°C° 0.9 mm 3 mps 744 mmHg 78%
    14:00 +22°C° 0.9 mm 3 mps 744 mmHg 79%
    15:00 +22°C° 0.9 mm 3 mps 744 mmHg 81%
    16:00 +22°C° 1 mm 4 mps 744 mmHg 84%
    17:00 +21°C° 1 mm 4 mps 744 mmHg 86%
    18:00 +21°C° 1 mm 5 mps 744 mmHg 88%
    19:00 +20°C° 0.1 mm 4 mps 744 mmHg 90%
    20:00 +19°C° 0.1 mm 4 mps 744 mmHg 92%
    21:00 +18°C° 0.1 mm 4 mps 744 mmHg 94%
    22:00 +17°C° 0.1 mm 3 mps 744 mmHg 95%
    23:00 +17°C° 0.1 mm 3 mps 744 mmHg 95%

    26 July, Friday

    Time Temperature Precipitation Wind Pressure Humidity
    00:00 +17°C° 0.1 mm 3 mps 745 mmHg 96%
    01:00 +17°C° 0.4 mm 3 mps 745 mmHg 96%
    02:00 +17°C° 0.4 mm 3 mps 745 mmHg 97%
    03:00 +18°C° 0.4 mm 4 mps 745 mmHg 97%
    04:00 +18°C° 0.5 mm 3 mps 745 mmHg 97%
    05:00 +18°C° 0.5 mm 3 mps 745 mmHg 97%
    06:00 +17°C° 0.5 mm 3 mps 745 mmHg 97%
    07:00 +19°C° 0 mm 4 mps 745 mmHg 94%
    08:00 +20°C° 0 mm 4 mps 745 mmHg 92%
    09:00 +21°C° 0 mm 5 mps 745 mmHg 89%
    10:00 +22°C° 0.1 mm 5 mps 745 mmHg 84%
    11:00 +23°C° 0.1 mm 5 mps 745 mmHg 79%
    12:00 +24°C° 0.1 mm 6 mps 745 mmHg 74%
    13:00 +24°C° 0.4 mm 6 mps 744 mmHg 75%
    14:00 +24°C° 0.4 mm 6 mps 744 mmHg 75%
    15:00 +24°C° 0.4 mm 6 mps 744 mmHg 76%
    16:00 +23°C° 0.6 mm 6 mps 744 mmHg 79%
    17:00 +23°C° 0.6 mm 5 mps 744 mmHg 81%
    18:00 +22°C° 0.6 mm 4 mps 744 mmHg 84%
    19:00 +21°C° 0.4 mm 4 mps 744 mmHg 86%
    20:00 +20°C° 0.4 mm 4 mps 744 mmHg 89%
    21:00 +19°C° 0.4 mm 3 mps 744 mmHg 91%
    22:00 +19°C° 0 mm 4 mps 744 mmHg 92%
    23:00 +18°C° 0 mm 4 mps 743 mmHg 93%

    27 July, Saturday

    Time Temperature Precipitation Wind Pressure Humidity
    00:00 +18°C° 0 mm 4 mps 743 mmHg 94%
    01:00 +18°C° 0 mm 4 mps 743 mmHg 95%
    02:00 +17°C° 0 mm 3 mps 743 mmHg 95%
    03:00 +17°C° 0 mm 3 mps 743 mmHg 96%
    04:00 +17°C° 0 mm 3 mps 743 mmHg 96%
    05:00 +17°C° 0 mm 4 mps 743 mmHg 96%
    06:00 +18°C° 0 mm 4 mps 743 mmHg 95%
    07:00 +19°C° 0 mm 4 mps 743 mmHg 92%
    08:00 +20°C° 0 mm 5 mps 743 mmHg 88%
    09:00 +21°C° 0 mm 5 mps 743 mmHg 85%
    10:00 +22°C° 0.2 mm 5 mps 743 mmHg 81%
    11:00 +23°C° 0.2 mm 6 mps 742 mmHg 77%
    12:00 +24°C° 0.2 mm 6 mps 742 mmHg 73%
    13:00 +26°C° 0.3 mm 5 mps 742 mmHg 71%
    14:00 +26°C° 0.3 mm 5 mps 742 mmHg 70%
    15:00 +26°C° 0.3 mm 4 mps 741 mmHg 68%
    16:00 +26°C° 0.2 mm 4 mps 741 mmHg 70%
    17:00 +26°C° 0.2 mm 3 mps 741 mmHg 73%
    18:00 +26°C° 0.2 mm 3 mps 741 mmHg 75%
    19:00 +24°C° 0.1 mm 3 mps 741 mmHg 80%
    20:00 +21°C° 0.1 mm 2 mps 741 mmHg 84%
    21:00 +20°C° 0.1 mm 2 mps 741 mmHg 89%
    22:00 +19°C° 0 mm 2 mps 740 mmHg 90%
    23:00 +19°C° 0 mm 2 mps 740 mmHg 92%

    28 July, Sunday

    Time Temperature Precipitation Wind Pressure Humidity
    00:00 +18°C° 0 mm 2 mps 740 mmHg 93%
    01:00 +18°C° 0 mm 2 mps 740 mmHg 93%
    02:00 +18°C° 0 mm 3 mps 739 mmHg 93%
    03:00 +17°C° 0 mm 3 mps 739 mmHg 93%
    04:00 +17°C° 0 mm 3 mps 739 mmHg 93%
    05:00 +17°C° 0 mm 4 mps 739 mmHg 94%
    06:00 +17°C° 0 mm 5 mps 739 mmHg 94%
    07:00 +16°C° 0.2 mm 6 mps 739 mmHg 92%
    08:00 +16°C° 0.2 mm 6 mps 739 mmHg 90%
    09:00 +16°C° 0.2 mm 7 mps 739 mmHg 89%
    10:00 +16°C° 0 mm 7 mps 739 mmHg 83%
    11:00 +16°C° 0 mm 7 mps 740 mmHg 78%
    12:00 +16°C° 0 mm 7 mps 740 mmHg 72%
    13:00 +16°C° 0 mm 7 mps 740 mmHg 70%
    14:00 +16°C° 0 mm 7 mps 740 mmHg 68%
    15:00 +16°C° 0 mm 7 mps 740 mmHg 66%
    16:00 +15°C° 0 mm 7 mps 740 mmHg 68%
    17:00 +14°C° 0 mm 7 mps 741 mmHg 69%
    18:00 +12°C° 0 mm 7 mps 741 mmHg 70%
    19:00 +11°C° 0 mm 6 mps 741 mmHg 69%
    20:00 +10°C° 0 mm 5 mps 741 mmHg 68%
    21:00 +10°C° 0 mm 4 mps 741 mmHg 67%
    22:00 +10°C° 0 mm 4 mps 741 mmHg 68%
    23:00 +10°C° 0 mm 4 mps 742 mmHg 68%
    Show more